Time,TemperatureF,DewpointF,PressureIn,WindDirection,WindDirectionDegrees,WindSpeedMPH,WindSpeedGustMPH,Humidity,HourlyPrecipIn,Conditions,Clouds,dailyrainin,SoftwareType,DateUTC
2013-01-27 00:02:00,39.0,-99.9,-100.00,North,-999,-999.0,-999.0,-999,0.00,,,0.77,,2013-01-27 08:02:00,
2013-01-27 00:12:00,39.0,-99.9,-100.00,North,-999,-999.0,-999.0,-999,0.00,,,0.77,,2013-01-27 08:12:00,
2013-01-27 00:22:00,39.0,-99.9,-100.00,North,-999,-999.0,-999.0,-999,0.00,,,0.77,,2013-01-27 08:22:00,
2013-01-27 00:30:00,38.0,-99.9,-100.00,North,-999,-999.0,-999.0,-999,0.00,,,0.73,,2013-01-27 08:30:00,
2013-01-27 01:03:00,38.0,-99.9,-100.00,North,-999,-999.0,-999.0,-999,0.00,,,0.73,,2013-01-27 09:03:00,
2013-01-27 01:11:00,38.0,-99.9,-100.00,North,-999,-999.0,-999.0,-999,0.00,,,0.73,,2013-01-27 09:11:00,
2013-01-27 01:22:00,38.0,-99.9,-100.00,North,-999,-999.0,-999.0,-999,0.00,,,0.73,,2013-01-27 09:22:00,
2013-01-27 01:30:00,38.0,-99.9,-100.00,North,-999,-999.0,-999.0,-999,0.00,,,0.66,,2013-01-27 09:30:00,
2013-01-27 02:02:00,38.0,-99.9,-100.00,North,-999,-999.0,-999.0,-999,0.00,,,0.66,,2013-01-27 10:02:00,
2013-01-27 02:11:00,38.0,-99.9,-100.00,North,-999,-999.0,-999.0,-999,0.00,,,0.66,,2013-01-27 10:11:00,
2013-01-27 02:22:00,38.0,-99.9,-100.00,North,-999,-999.0,-999.0,-999,0.00,,,0.66,,2013-01-27 10:22:00,
2013-01-27 02:30:00,38.0,-99.9,-100.00,North,-999,-999.0,-999.0,-999,0.01,,,0.60,,2013-01-27 10:30:00,
2013-01-27 03:02:00,38.0,-99.9,-100.00,North,-999,-999.0,-999.0,-999,0.01,,,0.60,,2013-01-27 11:02:00,
2013-01-27 03:11:00,38.0,-99.9,-100.00,North,-999,-999.0,-999.0,-999,0.01,,,0.60,,2013-01-27 11:11:00,
2013-01-27 03:22:00,38.0,-99.9,-100.00,North,-999,-999.0,-999.0,-999,0.01,,,0.60,,2013-01-27 11:22:00,
2013-01-27 03:30:00,38.0,-99.9,-100.00,North,-999,-999.0,-999.0,-999,0.00,,,0.56,,2013-01-27 11:30:00,
2013-01-27 04:03:00,38.0,-99.9,-100.00,North,-999,-999.0,-999.0,-999,0.00,,,0.56,,2013-01-27 12:03:00,
2013-01-27 04:12:00,38.0,-99.9,-100.00,North,-999,-999.0,-999.0,-999,0.00,,,0.56,,2013-01-27 12:12:00,
2013-01-27 04:22:00,38.0,-99.9,-100.00,North,-999,-999.0,-999.0,-999,0.00,,,0.56,,2013-01-27 12:22:00,
2013-01-27 04:30:00,37.0,-99.9,-100.00,North,-999,-999.0,-999.0,-999,0.00,,,0.52,,2013-01-27 12:30:00,
2013-01-27 05:02:00,37.0,-99.9,-100.00,North,-999,-999.0,-999.0,-999,0.00,,,0.52,,2013-01-27 13:02:00,
2013-01-27 05:12:00,37.0,-99.9,-100.00,North,-999,-999.0,-999.0,-999,0.00,,,0.52,,2013-01-27 13:12:00,
2013-01-27 05:22:00,37.0,-99.9,-100.00,North,-999,-999.0,-999.0,-999,0.00,,,0.52,,2013-01-27 13:22:00,
2013-01-27 05:30:00,37.0,-99.9,-100.00,North,-999,-999.0,-999.0,-999,0.00,,,0.47,,2013-01-27 13:30:00,
2013-01-27 06:02:00,37.0,-99.9,-100.00,North,-999,-999.0,-999.0,-999,0.00,,,0.47,,2013-01-27 14:02:00,
2013-01-27 06:12:00,37.0,-99.9,-100.00,North,-999,-999.0,-999.0,-999,0.00,,,0.47,,2013-01-27 14:12:00,
2013-01-27 06:22:00,37.0,-99.9,-100.00,North,-999,-999.0,-999.0,-999,0.00,,,0.47,,2013-01-27 14:22:00,
2013-01-27 06:30:00,36.0,-99.9,-100.00,North,-999,-999.0,-999.0,-999,0.00,,,0.36,,2013-01-27 14:30:00,
2013-01-27 07:03:00,36.0,-99.9,-100.00,North,-999,-999.0,-999.0,-999,0.00,,,0.36,,2013-01-27 15:03:00,
2013-01-27 07:12:00,36.0,-99.9,-100.00,North,-999,-999.0,-999.0,-999,0.00,,,0.36,,2013-01-27 15:12:00,
2013-01-27 07:22:00,36.0,-99.9,-100.00,North,-999,-999.0,-999.0,-999,0.00,,,0.36,,2013-01-27 15:22:00,
2013-01-27 07:30:00,36.0,-99.9,-100.00,North,-999,-999.0,-999.0,-999,0.00,,,0.35,,2013-01-27 15:30:00,
2013-01-27 08:03:00,36.0,-99.9,-100.00,North,-999,-999.0,-999.0,-999,0.00,,,0.35,,2013-01-27 16:03:00,
2013-01-27 08:12:00,36.0,-99.9,-100.00,North,-999,-999.0,-999.0,-999,0.00,,,0.35,,2013-01-27 16:12:00,
2013-01-27 08:22:00,36.0,-99.9,-100.00,North,-999,-999.0,-999.0,-999,0.00,,,0.35,,2013-01-27 16:22:00,
2013-01-27 08:30:00,36.0,-99.9,-100.00,North,-999,-999.0,-999.0,-999,0.02,,,0.31,,2013-01-27 16:30:00,
2013-01-27 09:02:00,36.0,-99.9,-100.00,North,-999,-999.0,-999.0,-999,0.02,,,0.31,,2013-01-27 17:02:00,
2013-01-27 09:13:00,36.0,-99.9,-100.00,North,-999,-999.0,-999.0,-999,0.02,,,0.31,,2013-01-27 17:13:00,
2013-01-27 09:22:00,36.0,-99.9,-100.00,North,-999,-999.0,-999.0,-999,0.02,,,0.31,,2013-01-27 17:22:00,
2013-01-27 09:30:00,36.0,-99.9,-100.00,North,-999,-999.0,-999.0,-999,0.06,,,0.35,,2013-01-27 17:30:00,
2013-01-27 10:03:00,36.0,-99.9,-100.00,North,-999,-999.0,-999.0,-999,0.06,,,0.35,,2013-01-27 18:03:00,
2013-01-27 10:12:00,36.0,-99.9,-100.00,North,-999,-999.0,-999.0,-999,0.06,,,0.35,,2013-01-27 18:12:00,
2013-01-27 10:23:00,36.0,-99.9,-100.00,North,-999,-999.0,-999.0,-999,0.06,,,0.35,,2013-01-27 18:23:00,
2013-01-27 10:30:00,39.0,-99.9,-100.00,North,-999,-999.0,-999.0,-999,0.04,,,-99.99,,2013-01-27 18:30:00,
2013-01-27 11:02:00,39.0,-99.9,-100.00,North,-999,-999.0,-999.0,-999,0.04,,,-99.99,,2013-01-27 19:02:00,
2013-01-27 11:12:00,39.0,-99.9,-100.00,North,-999,-999.0,-999.0,-999,0.04,,,-99.99,,2013-01-27 19:12:00,
2013-01-27 11:22:00,39.0,-99.9,-100.00,North,-999,-999.0,-999.0,-999,0.04,,,-99.99,,2013-01-27 19:22:00,
2013-01-27 11:30:00,40.0,-99.9,-100.00,North,-999,-999.0,-999.0,-999,0.01,,,0.34,,2013-01-27 19:30:00,
2013-01-27 12:03:00,40.0,-99.9,-100.00,North,-999,-999.0,-999.0,-999,0.01,,,0.34,,2013-01-27 20:03:00,
2013-01-27 12:12:00,40.0,-99.9,-100.00,North,-999,-999.0,-999.0,-999,0.01,,,0.34,,2013-01-27 20:12:00,
2013-01-27 12:22:00,40.0,-99.9,-100.00,North,-999,-999.0,-999.0,-999,0.01,,,0.34,,2013-01-27 20:22:00,
2013-01-27 12:30:00,40.0,-99.9,-100.00,North,-999,-999.0,-999.0,-999,0.04,,,0.38,,2013-01-27 20:30:00,
2013-01-27 13:02:00,40.0,-99.9,-100.00,North,-999,-999.0,-999.0,-999,0.04,,,0.38,,2013-01-27 21:02:00,
2013-01-27 13:12:00,40.0,-99.9,-100.00,North,-999,-999.0,-999.0,-999,0.04,,,0.38,,2013-01-27 21:12:00,
2013-01-27 13:23:00,40.0,-99.9,-100.00,North,-999,-999.0,-999.0,-999,0.04,,,0.38,,2013-01-27 21:23:00,
2013-01-27 13:30:00,40.0,-99.9,-100.00,North,-999,-999.0,-999.0,-999,0.08,,,0.31,,2013-01-27 21:30:00,
2013-01-27 14:03:00,40.0,-99.9,-100.00,North,-999,-999.0,-999.0,-999,0.08,,,0.31,,2013-01-27 22:03:00,
2013-01-27 14:12:00,40.0,-99.9,-100.00,North,-999,-999.0,-999.0,-999,0.08,,,0.31,,2013-01-27 22:12:00,
2013-01-27 14:22:00,40.0,-99.9,-100.00,North,-999,-999.0,-999.0,-999,0.08,,,0.31,,2013-01-27 22:22:00,
2013-01-27 16:30:00,40.0,-99.9,-100.00,North,-999,-999.0,-999.0,-999,0.01,,,0.35,,2013-01-28 00:30:00,
2013-01-27 17:02:00,40.0,-99.9,-100.00,North,-999,-999.0,-999.0,-999,0.01,,,0.35,,2013-01-28 01:02:00,
2013-01-27 17:12:00,40.0,-99.9,-100.00,North,-999,-999.0,-999.0,-999,0.01,,,0.35,,2013-01-28 01:12:00,
2013-01-27 17:22:00,40.0,-99.9,-100.00,North,-999,-999.0,-999.0,-999,0.01,,,0.35,,2013-01-28 01:22:00,
2013-01-27 17:30:00,39.0,-99.9,-100.00,North,-999,-999.0,-999.0,-999,0.01,,,0.36,,2013-01-28 01:30:00,
2013-01-27 18:02:00,39.0,-99.9,-100.00,North,-999,-999.0,-999.0,-999,0.01,,,0.36,,2013-01-28 02:02:00,
2013-01-27 18:12:00,39.0,-99.9,-100.00,North,-999,-999.0,-999.0,-999,0.01,,,0.36,,2013-01-28 02:12:00,
2013-01-27 18:22:00,39.0,-99.9,-100.00,North,-999,-999.0,-999.0,-999,0.01,,,0.36,,2013-01-28 02:22:00,
2013-01-27 18:30:00,39.0,-99.9,-100.00,North,-999,-999.0,-999.0,-999,0.01,,,0.37,,2013-01-28 02:30:00,
2013-01-27 19:02:00,39.0,-99.9,-100.00,North,-999,-999.0,-999.0,-999,0.01,,,0.37,,2013-01-28 03:02:00,
2013-01-27 19:12:00,39.0,-99.9,-100.00,North,-999,-999.0,-999.0,-999,0.01,,,0.37,,2013-01-28 03:12:00,
2013-01-27 19:22:00,39.0,-99.9,-100.00,North,-999,-999.0,-999.0,-999,0.01,,,0.37,,2013-01-28 03:22:00,
2013-01-27 19:30:00,39.0,-99.9,-100.00,North,-999,-999.0,-999.0,-999,0.01,,,0.38,,2013-01-28 03:30:00,
2013-01-27 20:03:00,39.0,-99.9,-100.00,North,-999,-999.0,-999.0,-999,0.01,,,0.38,,2013-01-28 04:03:00,
2013-01-27 20:12:00,39.0,-99.9,-100.00,North,-999,-999.0,-999.0,-999,0.01,,,0.38,,2013-01-28 04:12:00,
2013-01-27 20:22:00,39.0,-99.9,-100.00,North,-999,-999.0,-999.0,-999,0.01,,,0.38,,2013-01-28 04:22:00,
2013-01-27 20:30:00,39.0,-99.9,-100.00,North,-999,-999.0,-999.0,-999,0.00,,,0.38,,2013-01-28 04:30:00,
2013-01-27 21:12:00,39.0,-99.9,-100.00,North,-999,-999.0,-999.0,-999,0.00,,,0.38,,2013-01-28 05:12:00,
2013-01-27 21:22:00,39.0,-99.9,-100.00,North,-999,-999.0,-999.0,-999,0.00,,,0.38,,2013-01-28 05:22:00,
2013-01-27 21:30:00,39.0,-99.9,-100.00,North,-999,-999.0,-999.0,-999,0.00,,,0.37,,2013-01-28 05:30:00,
2013-01-27 22:03:00,39.0,-99.9,-100.00,North,-999,-999.0,-999.0,-999,0.00,,,0.37,,2013-01-28 06:03:00,
2013-01-27 22:12:00,39.0,-99.9,-100.00,North,-999,-999.0,-999.0,-999,0.00,,,0.37,,2013-01-28 06:12:00,
2013-01-27 22:22:00,39.0,-99.9,-100.00,North,-999,-999.0,-999.0,-999,0.00,,,0.37,,2013-01-28 06:22:00,
2013-01-27 22:30:00,38.0,-99.9,-100.00,North,-999,-999.0,-999.0,-999,0.00,,,0.37,,2013-01-28 06:30:00,
2013-01-27 23:03:00,38.0,-99.9,-100.00,North,-999,-999.0,-999.0,-999,0.00,,,0.37,,2013-01-28 07:03:00,
2013-01-27 23:11:00,38.0,-99.9,-100.00,North,-999,-999.0,-999.0,-999,0.00,,,0.37,,2013-01-28 07:11:00,
2013-01-27 23:22:00,38.0,-99.9,-100.00,North,-999,-999.0,-999.0,-999,0.00,,,0.37,,2013-01-28 07:22:00,
2013-01-27 23:30:00,37.0,-99.9,-100.00,North,-999,-999.0,-999.0,-999,0.00,,,0.37,,2013-01-28 07:30:00,